Miscellaneous Local Product
Issued by NWS North Platte, NE

Home | Current Version | Previous Version | Text Only | Print | Product List | Glossary On
Versions: 1 2 3 4 5 6 7 8 9 10 11 12 13 14 15 16 17 18 19 20 21 22 23 24 25 26 27 28 29 30 31 32 33 34 35 36 37 38 39 40 41 42 43 44 45 46 47 48 49 50
000
AXUS43 KLBF 150610
MISLBF


WESTERN AND NORTH CENTRAL NEBRASKA HOURLY WEATHER ROUNDUP
NATIONAL WEATHER SERVICE NORTH PLATTE NE
100 AM CDT MON SEP 15 2014

***STATIONS NOT REPORTING VARIABLES SUCH AS SKY/WEATHER OR
PRESSURE ARE PROVIDED BY THE NEBRASKA DEPARTMENT OF
ROADS...RAWS...AND APRS NETWORKS...AND ARE NOT UNDER
NATIONAL WEATHER SERVICE QUALITY CONTROL***

...OBSERVATIONS IN AND NEAR THE EASTERN PANHANDLE OF NEBRASKA...

CITY           SKY/WX    TMP DP  RH WIND       PRES   REMARKS
PINE RIDGE     CLEAR     36  35  96 E5        30.22R WCI  32
CHADRON        CLEAR     41  39  93 N3        30.22R
ALLIANCE       CLOUDY    47  41  80 N12       30.18R
SIDNEY         PTCLDY    52  47  83 N16       30.15R
WHITECLAY        N/A     36  34  90 CALM        N/A
RUSHVILLE        N/A     38  37  92 N12         N/A  WCI  31
CRESCENT LAKE    N/A     50  45  84 N12         N/A
LISCO            N/A     54  43  66 NW23        N/A
BIG SPRINGS      N/A     56  54  93 CALM        N/A
$$

...OBSERVATIONS IN NORTH CENTRAL NEBRASKA...

CITY           SKY/WX    TMP DP  RH WIND       PRES   REMARKS
VALENTINE      CLOUDY    51  38  60 N9        30.17R
THEDFORD       CLOUDY    54  49  85 NE9       30.12R
AINSWORTH      CLOUDY    49  42  76 N8        30.14S
O`NEILL        CLOUDY    52  48  86 N8        30.12R
ORD            MOCLDY    55  52  89 CALM      30.04F
BROKEN BOW     MOCLDY    58  52  80 NE3       30.05F
SPRINGVIEW       N/A     50  41  71 N3          N/A
ROSE             N/A     51  48  92 N14         N/A
NEWPORT          N/A     50  44  80 NE8         N/A
COMSTOCK         N/A     64  57  80 E6          N/A
CHAMBERS         N/A     54  51  90 N3          N/A
$$

...OBSERVATIONS IN SOUTHWEST NEBRASKA AND FAR NORTHEAST COLORADO...

CITY           SKY/WX    TMP DP  RH WIND       PRES   REMARKS
WRAY           FAIR      65  56  71 NE8G23    30.03R
HOLYOKE        FAIR      59  55  88 NE8       30.07R
IMPERIAL       PTCLDY    57  55  93 E6        30.04R
OGALLALA       PTCLDY    57  56  95 NE6       30.07R
NORTH PLATTE   PTCLDY    53  51  93 CALM      30.05R
MCCOOK         PTCLDY    57  53  86 NE12      30.01F
LEXINGTON      CLOUDY    60  53  78 E7        30.02F
PAXTON           N/A     58  55  89 E3          N/A
SUTHERLAND       N/A     51  48  90 CALM        N/A
BRADY            N/A     54  50  87 CALM        N/A
GOTHENBURG       N/A     56  50  80 CALM        N/A
CALLAWAY         N/A     57  54  89 E7          N/A
$$

...SOME WEATHER OBSERVATIONS FROM AROUND THE REGION...

CITY           SKY/WX    TMP DP  RH WIND       PRES   REMARKS
DENVER         MOCLDY    61  43  51 N12       30.15R
LARAMIE        CLEAR     48  37  65 VRB3      30.25R
CHEYENNE       CLEAR     47  43  86 VRB5      30.24R
SCOTTSBLUFF    CLEAR     47  42  83 N5        30.19R
RAPID CITY     PTCLDY    40  37  89 CALM      30.23S
PIERRE         CLOUDY    51  40  65 N9        30.19R
WINNER         CLOUDY    52  43  71 N8        30.18R
SIOUX FALLS    LGT RAIN  50  46  86 NE8       30.14S
OMAHA          TSTM      63  55  75 SE3       30.07F
GRAND ISLAND   CLOUDY    61  54  77 E9        30.04S
KANSAS CITY    CLOUDY    65  58  78 SE7       30.08S
WICHITA        MOCLDY    68  60  75 S15       30.03F
HAYS           CLEAR     66  57  72 S10       29.96S
LIBERAL        CLEAR     64  57  77 S12       30.06F
GOODLAND       MOCLDY    58  55  90 CALM      30.05R
$$



USA.gov is the U.S. government's official web portal to all federal, state and local government web resources and services.